User: anonymous
Location: Unspecified
(0.0000°N, 0.0000°E)
Time: 02:08:04
(UTC+02:00)
Language:

SWIFT - Orbit

View from above orbital plane
View from above orbital plane
View from above satellite
View from above satellite

Ground track
Ground track

The orbit data is extracted from the following two-line orbital elements,

1 28485U 04047A   14110.47647149  .00009007  00000-0  69664-3 0  6718
2 28485 020.5570 257.5458 0013085 105.6178 254.5699 14.98537494514520
Epoch (UTC): 20 April 2014 11:26:07
Eccentricity: 0.0013085
inclination: 20.5570°
perigee height: 562 km
apogee height: 580 km
right ascension of ascending node: 257.5458°
argument of perigee: 105.6178°
revolutions per day: 14.98537494
mean anomaly at epoch: 254.5699°
orbit number at epoch: 51452

The dashed part of the orbit path shows where the satellite is in the earth's shadow,  

DLR